[Iaude] MPEC K82: 2017 CE56 [a=46.05,e=0.07,i=4.5,H=8.08]

mpec at cfa.harvard.edu mpec at cfa.harvard.edu
Thu May 23 13:22:11 EDT 2024


M.P.E.C. 2024-K82                                  Issued 2024 May 23, 17:20 UT

     The Minor Planet Electronic Circulars contain information on unusual
         minor planets, routine data on comets and natural satellites,
         and occasional editorial announcements.  They are published
    on behalf of Division F of the International Astronomical Union by the
          Minor Planet Center, Smithsonian Astrophysical Observatory,
                          Cambridge, MA 02138, U.S.A.
			  
             Prepared using the Tamkin Foundation Computer Network

                              MPC at CFA.HARVARD.EDU
            URL https://www.minorplanetcenter.net/    ISSN 1523-6714

                                   2017 CE56                                    


Additional Observations:
     K17C56E 1C2016 04 02.44456512 27 57.68 +00 53 14.2                WEK082T09
     K17C56E 1C2016 06 05.32004912 24 46.18 +01 11 13.6                WEK082T09
     K17C56E 1C2016 06 05.33273612 24 46.17 +01 11 13.6                WEK082T09

Observer details:
T09 Subaru Telescope, Maunakea.  Observer .  Measurer S. Deen.  8.3-m Subaru
    Telescope + CCD.

Orbital elements:
2017 CE56                                                                       
Epoch 2024 Mar. 31.0 TT = JDT 2460400.5                 Alexandersen            
M  70.21681              (2000.0)            P               Q                  
n   0.00315363     Peri.  343.80732     -0.47818477     -0.87650206             
a  46.0534421      Node   134.72007     +0.81420786     -0.46612653             
e   0.0652163      Incl.    4.48217     +0.32924898     -0.12029210             
P 313              H    8.08          G   0.15           U   7                  
Residuals in seconds of arc
160402 T09  0.0   0.1+    170130 T09  0.0   0.0     170223 T09  0.1+  0.3-
160605 T09  0.0   0.1-    170130 T09  0.1+  0.0     170223 T09  0.1-  0.1-
160605 T09  0.0   0.1-    170202 T09  0.0   0.1+    170223 T09  0.0   0.2+
170130 T09  0.0   0.0     170202 T09  0.0   0.1-    170304 T09  0.1+  0.0
170130 T09  0.0   0.0     170202 T09  0.1+  0.1+    170304 T09  0.1-  0.1+
170130 T09  0.0   0.0     170202 T09  0.1-  0.1+    170304 T09  0.0   0.2-
170130 T09  0.0   0.1-    170223 T09  0.1-  0.2+

Ephemeris:
2017 CE56                a,e,i = 46.05, 0.07, 4                  q = 43.0500
Date    TT    R. A. (2000) Decl.     Delta      r    Elong.  Phase     V
2024 04 23    13 03 34.2 -02 25 23  44.2615 45.2195   162.1     0.4    24.7
...
2024 05 08    13 02 37.7 -02 20 00  44.3671 45.2219   147.5     0.7    24.7
...
2024 05 16    13 02 11.2 -02 17 39  44.4468 45.2232   139.7     0.8    24.7
...
2024 05 22    13 01 53.6 -02 16 11  44.5161 45.2242   133.9     0.9    24.7
2024 05 23    13 01 50.9 -02 15 57  44.5283 45.2243   133.0     0.9    24.7
2024 05 24    13 01 48.2 -02 15 44  44.5408 45.2245   132.0     1.0    24.8
...
2024 05 30    13 01 33.5 -02 14 37  44.6195 45.2255   126.2     1.0    24.8
...
2024 06 07    13 01 17.6 -02 13 33  44.7339 45.2267   118.5     1.1    24.8
...
2024 06 22    13 01 00.3 -02 12 59  44.9705 45.2292   104.1     1.2    24.8

M. P. C. Staff               (C) Copyright 2024 MPC           M.P.E.C. 2024-K82





More information about the Iaude mailing list